This is the latest recevied weather packets stored in our database for station/object KC8PTQ. If no packets are shown the sender has not sent any weather packets the latest 10 day(s).
| Time | Temp. | Humidity | Pressure | Rain* | Wind** | Luminosity | Snow |
|---|---|---|---|---|---|---|---|
| 1778226229 | 7.22° C | 86% | 1013.8 hPa | 0 mm | - | 0 W/m² | - |
| 1778225926 | 7.22° C | 87% | 1013.7 hPa | 0 mm | - | 0 W/m² | - |
| 1778225624 | 7.22° C | 87% | 1013.7 hPa | 0 mm | - | 0 W/m² | - |
| 1778225320 | 7.22° C | 87% | 1013.9 hPa | 0 mm | - | 0 W/m² | - |
| 1778225017 | 7.22° C | 86% | 1014.1 hPa | 0 mm | - | 0 W/m² | - |
| 1778224714 | 7.78° C | 85% | 1013.8 hPa | 0 mm | - | 0 W/m² | - |
| 1778224412 | 7.78° C | 84% | 1014 hPa | 0 mm | - | 0 W/m² | - |
| 1778224110 | 7.78° C | 86% | 1014.2 hPa | 0 mm | - | 0 W/m² | - |
| 1778223808 | 7.78° C | 86% | 1014.1 hPa | 0 mm | - | 0 W/m² | - |
| 1778223505 | 7.78° C | 86% | 1014.4 hPa | 0 mm | - | 0 W/m² | - |
| 1778223203 | 7.78° C | 86% | 1014.3 hPa | 0 mm | - | 0 W/m² | - |
| 1778222901 | 8.33° C | 85% | 1014.2 hPa | 0 mm | - | 0 W/m² | - |
| 1778222598 | 8.33° C | 83% | 1014.1 hPa | 0 mm | - | 0 W/m² | - |
| 1778222295 | 8.33° C | 84% | 1014.4 hPa | 1.78 mm | - | 0 W/m² | - |
| 1778221993 | 8.33° C | 85% | 1014.4 hPa | 1.78 mm | - | 0 W/m² | - |
| 1778221690 | 8.33° C | 83% | 1014.6 hPa | 0 mm | - | 0 W/m² | - |
| 1778221388 | 8.33° C | 84% | 1014.5 hPa | 0 mm | - | 0 W/m² | - |
| 1778221084 | 8.33° C | 82% | 1014.3 hPa | 0 mm | - | 0 W/m² | - |
| 1778220782 | 8.33° C | 81% | 1014.3 hPa | 0 mm | - | 0 W/m² | - |
| 1778220478 | 8.33° C | 78% | 1014.6 hPa | 0 mm | - | 0 W/m² | - |
| 1778220176 | 8.33° C | 81% | 1014.4 hPa | 0 mm | - | 0 W/m² | - |
| 1778219871 | 8.33° C | 81% | 1014.6 hPa | 0 mm | - | 0 W/m² | - |
| 1778219568 | 7.78° C | 84% | 1014.4 hPa | 0 mm | - | 0 W/m² | - |
| 1778219265 | 7.78° C | 86% | 1014.5 hPa | 0 mm | - | 0 W/m² | - |
| 1778218963 | 7.22° C | 88% | 1014.4 hPa | 0 mm | - | 0 W/m² | - |
* Rain latest hour (hover to see other rain measurements)
** Current wind speed in m/s (hover to see current wind gust speed)